Simultaneous Nadir Overpasses (SNOs) Predictions

Prediction of SNOs between METOP-C and LANDSAT-8 Satellite Orbit:

Table of predicted SNOs for the next 14.0 days since TLE Epoch: 11/13/2021
Index Date (METOP-C) Time (METOP-C) Lat,Lon (METOP-C) SZA (METOP-C ) Date (LANDSAT-8) Time (LANDSAT-8) Lat,Lon (LANDSAT-8) SZA (LANDSAT-8 ) Distance(km) Time Diff (sec)
1 11/15/2021 01:20:07 81.07,-161.12 101.81 11/15/2021 01:20:59 81.08,-161.03 101.85 1.72 52
2 11/15/2021 02:10:47 -81.09, 6.76 78.11 11/15/2021 02:10:25 -81.09, 6.91 78.10 2.65 22
3 11/17/2021 20:54:30 81.08, -94.59 102.51 11/17/2021 20:55:13 81.07, -94.62 102.52 0.58 43
4 11/17/2021 21:45:10 -81.10, 73.26 77.42 11/17/2021 21:44:39 -81.09, 73.35 77.43 1.61 31
5 11/20/2021 16:28:51 81.09, -27.70 103.20 11/20/2021 16:29:25 81.09, -27.88 103.19 3.15 34
6 11/20/2021 17:19:31 -81.11, 140.11 76.74 11/20/2021 17:18:51 -81.12, 140.11 76.75 0.52 40
7 11/23/2021 12:03:15 81.08, 38.42 103.74 11/23/2021 12:03:39 81.08, 38.45 103.76 0.44 24
8 11/23/2021 12:53:54 -81.11,-153.43 76.15 11/23/2021 12:53:05 -81.11,-153.53 76.18 1.77 49
9 11/26/2021 07:37:37 81.10, 105.28 104.33 11/26/2021 07:37:52 81.10, 105.11 104.32 3.04 15



Historial Predications of SNOs between METOP-C and LANDSAT-8
